Location: Montichiari
(45.4167°N, 10.3833°E)
Time: 08:27:40
(UTC+00:00)

Daily predictions for brighter satellites

Satellite Brightness Start Highest point End
(mag) Time Altitude Azimuth Time Altitude Azimuth Time Altitude Azimuth
CZ-4C R/B 3.8 17:17:55 10° NNW 17:23:39 28° NNE 17:30:01 10° E
Cosmos 1812 2.7 17:21:55 10° N 17:25:48 69° E 17:29:39 10° SSE
Cosmos 1975 Rocket 4.2 17:23:05 10° NNE 17:26:41 24° ENE 17:30:17 10° SE
Meteor 1-18 Rocket 4.4 17:22:03 10° N 17:27:32 52° ENE 17:32:55 10° SSE
NOSS 3-2 (A) 4.2 17:22:51 10° WSW 17:28:45 57° NW 17:35:24 10° NE
ATLAS CENTAUR R/B 3.2 17:27:34 10° N 17:30:06 16° NE 17:32:42 10° ENE
Cosmos 2233 Rocket 4.5 17:24:32 10° NNW 17:30:47 68° W 17:36:56 10° S
Meteor 1-25 Rocket 4.3 17:28:50 10° S 17:34:12 54° E 17:39:38 10° NNE
Okean 1 3.9 17:31:26 10° N 17:35:08 35° ENE 17:38:48 10° SE
Iridium 4 Rocket 3.4 17:37:59 10° N 17:42:39 47° E 17:46:55 10° SSE
HJ-1C 4.4 17:41:41 10° SE 17:44:34 26° ENE 17:47:28 10° NNE
Cosmos 158 Rocket 3.8 17:41:05 10° SSW 17:45:57 78° ESE 17:50:51 10° NNE
Cosmos 1378 Rocket 3.5 17:42:25 10° N 17:46:51 71° E 17:51:16 10° SSE
Resurs 01 Rocket 3.2 17:45:04 11° E 17:47:26 16° ENE 17:50:08 10° NNE
CZ-4 R/B 3.9 17:45:57 10° SSW 17:49:22 26° W 17:52:44 10° NW
Meteor 1-4 Rocket 4.0 17:48:24 10° SE 17:50:45 17° E 17:53:07 10° NE
Cosmos 1464 Rocket 3.9 17:46:43 10° N 17:52:52 80° E 17:59:01 10° S
Cosmos 44 Rocket 4.2 17:48:06 10° NW 17:53:02 56° WSW 17:58:03 10° SSE
Cosmos 1943 4.1 17:48:51 10° N 17:53:48 30° NE 17:58:06 13° ESE
Gbstr 26 Del rocket 3.8 17:52:17 10° SSW 17:55:24 25° SE 17:57:27 17° E
SL-8 R/B 3.7 17:51:12 10° WSW 17:56:01 86° NNW 18:00:00 15° ENE
FENGYUN 3A 4.5 17:51:28 10° S 17:56:46 57° W 18:02:07 10° NNW
EO 1 Del DPAF 3.1 17:54:13 10° NNE 17:58:04 76° ESE 18:01:52 10° S
Cosmos 1782 Rocket 3.8 17:56:19 10° SSE 18:00:35 48° E 18:04:51 10° NNE
Landsat 4 3.8 17:57:25 10° NNE 18:01:11 79° WNW 18:04:57 10° SSW
Cosmos 1048 Rocket 4.0 17:58:29 10° SSW 18:03:47 75° ESE 18:09:03 10° NNE
FengYun 1-2 T 4.2 17:59:33 10° SSE 18:05:02 81° ENE 18:10:33 10° NNW
Cosmos 1437 Rocket 2.9 18:02:52 10° S 18:06:52 57° E 18:10:55 10° NNE
USA 215 4.0 18:02:16 14° ENE 18:07:04 31° SE 18:12:43 10° S
COSMO-SKYMED 1 3.9 18:03:39 10° N 18:07:46 42° WNW 18:11:51 10° SW
YAOGAN 6 4.3 18:09:20 17° NE 18:09:20 17° NE 18:11:10 10° NNE
Cosmos 2227 Rocket 3.8 18:04:15 10° WSW 18:09:25 35° NW 18:14:36 10° NNE
FREGAT/IRIS 2.4 18:07:47 10° SSE 18:10:44 85° ENE 18:13:44 10° N
ALOS 4.1 18:07:35 10° SSW 18:11:51 35° W 18:16:09 10° NNW
SL-16 R/B 3.4 18:09:03 10° NW 18:14:25 44° WSW 18:19:44 10° S
Sich 1 Rocket 3.6 18:09:56 10° S 18:14:25 89° E 18:18:54 10° N
SPOT 3 Rocket 4.4 18:10:53 10° S 18:15:58 55° WSW 18:21:07 10° NNW
ARGOS Delta rocket 4.1 18:12:30 10° NNE 18:17:05 41° E 18:21:24 10° SSE
Cosmos 1633 3.7 18:14:23 10° SSW 18:17:49 45° WNW 18:21:17 10° N
COSMOS 2455 3.4 18:14:47 10° S 18:20:08 35° ESE 18:24:30 15° NE
Cosmos 2297 Rocket 3.9 18:17:50 10° WSW 18:22:54 33° NW 18:28:00 10° N
Okean 2 Rocket 3.1 18:21:48 10° S 18:26:05 55° E 18:30:24 10° NNE
Cosmos 921 Rocket 3.9 18:23:13 10° NNW 18:27:38 53° WSW 18:31:58 10° S
SeaSat 1 2.5 18:25:25 19° SE 18:28:56 58° ENE 18:33:47 10° NNW
Cosmos 2034 Rocket 4.3 18:23:50 10° NNW 18:30:14 75° W 18:36:33 10° S
Cosmos 1603 3.6 18:27:47 10° NNW 18:33:28 89° WSW 18:39:05 10° SSE
Alouette 2 Rocket 3.4 18:31:37 10° S 18:37:13 20° NE 18:38:43 10° NNE
Cosmos 2151 Rocket 4.0 18:31:33 10° SSE 18:35:41 37° E 18:39:48 10° NNE
Cosmos 1939 Rocket 3.3 18:37:30 40° E 18:37:47 40° ENE 18:41:39 10° N
CENTAUR R/B 3.1 18:33:04 10° SW 18:39:07 60° NW 18:46:08 10° NE
USA 186 2.3 18:39:53 44° NE 18:39:53 44° NE 18:42:33 10° N
ERS-2 3.4 18:36:58 10° S 18:40:29 42° W 18:44:01 10° NNW
Cosmos 1634 Rocket 4.0 18:34:51 10° N 18:40:56 57° ENE 18:46:59 10° SSE
USA 267 3.8 18:39:01 26° ENE 18:42:16 44° NNE 18:48:23 10° NW
Meteor 1-13 Rocket 4.1 18:36:47 10° N 18:42:21 86° E 18:47:51 10° S
Cosmos 1816 Rocket 4.5 18:38:56 10° S 18:45:18 87° E 18:51:42 10° N
Envisat 2.9 18:43:10 10° SSE 18:48:16 88° WSW 18:53:23 10° NNW
Cosmos 2263 Rocket 2.4 18:43:24 10° S 18:48:37 43° ESE 18:49:59 37° ENE
Cosmos 2142 Rocket 4.5 18:45:33 10° N 18:51:51 60° ENE 18:56:17 20° SSE
SJ-6B 3.8 18:53:32 10° S 18:57:11 45° W 19:00:56 10° NNW
Cosmos 494 Rocket 3.8 18:53:08 10° SSW 18:58:21 85° ESE 19:03:34 10° NNE
Cosmos 1184 Rocket 3.2 18:57:25 10° NNW 19:00:28 60° WNW 19:00:28 60° WNW
Thor Agena Rocket 3.6 18:57:53 10° NNE 19:02:59 76° WNW 19:08:00 10° SSW
Resurs 1-3 3.5 19:03:53 55° SSE 19:04:51 87° ENE 19:09:16 10° NNW
ATLAS CENTAUR R/B 1.3 19:05:26 10° NW 19:09:29 82° N 19:09:29 82° N
CZ-4C R/B 2.8 19:06:08 10° NW 19:13:15 80° NE 19:16:13 42° SE
Meteor 2-4 Rocket 4.1 19:08:05 10° NNW 19:13:49 64° W 19:19:21 10° S
Meteor 1-5 Rocket 4.2 19:12:20 10° S 19:18:15 87° E 19:24:16 10° NNE
Resurs 01 Rocket 2.0 19:22:38 51° SSW 19:23:26 61° WSW 19:27:50 10° NNW
Meteor 1-4 Rocket 4.4 19:22:26 10° SW 19:25:36 30° WNW 19:28:49 10° N
BREEZE-M DEB (TANK) 4.4 19:03:41 10° WSW 19:26:29 89° S 19:28:02 55° E
Meteor 1-11 Rocket 4.5 19:26:51 10° SSW 19:32:18 52° WNW 19:37:55 10° N
NOAA 11 4.1 19:33:05 73° NNE 19:33:05 73° NNE 19:38:04 10° NNW
H-2A R/B 3.8 19:36:07 22° NNE 19:36:07 22° NNE 19:38:19 10° N
Cosmos 2180 Rocket 4.4 19:27:37 10° N 19:33:36 70° ENE 19:33:36 70° ENE
Cosmos 1536 Rocket 4.3 19:30:57 10° NNW 19:35:03 52° W 19:35:03 52° W
Spot 2 Rocket 3.9 19:37:10 53° SW 19:37:57 60° WSW 19:43:00 10° NNW
Cosmos 1943 3.9 19:32:38 10° NW 19:38:06 50° WSW 19:40:00 35° SSW
SL-8 R/B 4.4 19:34:05 10° W 19:37:59 51° NW 19:37:59 51° NW
USA 215 3.2 19:49:38 69° NE 19:50:31 84° NW 19:57:04 10° WSW
Cosmos 2251 Rocket 4.1 19:49:00 10° SW 19:53:50 53° WNW 19:53:50 53° WNW
Cosmos 2279 Rocket 4.4 19:58:55 10° NNW 20:05:01 57° W 20:05:47 54° WSW
COSMOS 2455 3.7 20:00:08 10° WSW 20:05:55 47° NW 20:07:47 36° N
USA 267 3.6 20:26:22 59° WNW 20:26:22 59° WNW 20:31:34 10° NW
Cosmos 2263 Rocket 3.7 20:27:41 10° WSW 20:31:53 31° WNW 20:31:53 31° WNW
CZ-4C R/B 4.4 20:55:28 10° WNW 21:01:27 27° WSW 21:01:28 27° WSW
